Regional Weather Roundup
Issued by NWS

Home | Current Version | Previous Version | Text Only | Print | Product List | Glossary On
Versions: 1 2 3 4 5 6 7 8 9 10 11 12 13 14 15 16 17 18 19 20 21 22 23 24 25 26 27 28
000
ASUS46 KPQR 231110
RWROR

OREGON REGIONAL WEATHER ROUNDUP
NATIONAL WEATHER SERVICE PORTLAND OR
400 AM PDT THU OCT 23 2014

NOTE: "FAIR" INDICATES FEW OR NO CLOUDS BELOW 12,000 FEET WITH
NO SIGNIFICANT WEATHER AND/OR OBSTRUCTIONS TO VISIBILITY.

ORZ001>013-231200-
NORTHWEST OREGON


CITY           SKY/WX    TMP DP  RH WIND       PRES   REMARKS
ASTORIA        CLOUDY    55  51  86 S7        29.70S
NEWPORT        RAIN      55  54  94 SW16G24   29.80R
PORTLAND       RAIN      55  53  93 SE5       29.78S
VANCOUVER WA   RAIN      55  51  86 SE5       29.78R
SCAPPOOSE      LGT RAIN  54  52  93 S5        29.75F
HILLSBORO      LGT RAIN  53  53 100 CALM      29.76F
AURORA         CLOUDY    53  53 100 CALM      29.77F
MCMINNVILLE    LGT RAIN  54  52  93 CALM      29.78S FOG
SALEM          RAIN      55  53  93 S6        29.77R FOG
CORVALLIS      CLOUDY    57  54  88 SW3       29.78F
EUGENE         CLOUDY    57  54  89 S7        29.80R
$$

ORZ021-028-231200-
SOUTHWEST OREGON


CITY           SKY/WX    TMP DP  RH WIND       PRES   REMARKS
NORTH BEND     CLOUDY    61  61 100 S8        29.81F
BROOKINGS      HVY RAIN  57  57 100 VRB5      29.88F VSB 1/2
ROSEBURG       CLOUDY    59  56  89 SE3       29.82F
SEXTON SUMMIT  LGT RAIN  49  49 100 S16G32    29.85F VSB 1/4
MEDFORD        CLOUDY    57  54  89 N3        29.84F
$$

ORZ009-041-231200-
COLUMBIA GORGE


CITY           SKY/WX    TMP DP  RH WIND       PRES   REMARKS
TROUTDALE      LGT RAIN  55  51  86 E5        29.76F
THE DALLES     CLOUDY    55  51  86 S3        29.77F
$$

ORZ029>031-042>050-061>064-231200-
EASTERN OREGON


CITY           SKY/WX    TMP DP  RH WIND       PRES   REMARKS
REDMOND        CLOUDY    53  45  74 SW10      29.82R
BEND           CLOUDY    54  45  71 SW14      29.84R
KLAMATH FALLS  CLOUDY    49  43  80 S16       29.97F
LAKEVIEW       CLOUDY    45  43  93 S9        30.08R
HERMISTON      LGT RAIN  57  53  86 S3        29.78F
PENDLETON      CLOUDY    54  51  90 E6        29.80F
JOHN DAY       CLOUDY    57  41  54 S23G29    29.88S
MEACHAM        LGT RAIN  47  45  93 CALM      29.84F
LA GRANDE      CLOUDY    57  36  44 S20       29.84F
BAKER CITY     LGT RAIN  51  41  68 E16       29.90F
BURNS          CLOUDY    51  41  68 SE9       29.95F
ROME             N/A     53  40  61 SW8       30.01F
ONTARIO        CLOUDY    51  48  89 NW6       29.97F
$$



USA.gov is the U.S. government's official web portal to all federal, state and local government web resources and services.